{"data":{"norad_id":39446,"intl_designator":"2013-066AG","name":"UWE-3","alt_names":[],"object_type":"PAYLOAD","status":"ACTIVE","operator":null,"country":"GER","launch_date":"2013-11-21","launch_site_code":"DLS","launch_vehicle":null,"mission":null,"orbit_class":"UNKNOWN","rcs_meters":0.0316,"size_class":null,"mass_kg":null,"dimensions":null,"purposes":["comms","tech_demo"],"wikipedia_slug":null,"has_3d_model":false,"image_url":null,"decayed_at":null,"tle_current":{"epoch":"2026-09-19T07:26:00.708288Z","epoch_age_seconds":117116,"freshness":"FRESH","line1":"1 39446U 13066AG  26262.30973042  .00003310  00000+0  28185-3 0  9991","line2":"2 39446  97.8815 219.0999 0048795   8.1790 352.0216 14.97587625691664","mean_motion":14.97587625,"eccentricity":0.0048795,"inclination_deg":97.8815,"raan_deg":219.0999,"arg_perigee_deg":8.179,"mean_anomaly_deg":352.0216,"bstar":0.00028185,"rev_number":69166,"period_min":96.154640700907,"perigee_km":540.42789982679,"apogee_km":608.27724556674,"semimajor_km":6952.4895726968,"source":"CELESTRAK","updated_at":"2026-09-20T09:00:48.023974Z"}}}